Hourly Data Report for July 06, 2021

FISHER BRANCH (AUT)
MANITOBA
Current Station Operator: ECCC - MSC

51°05'00.100" N
97°33'16.200" W
253.00 m
50309J6
71442
WSZ

Download Data

Hourly Data (July 2021)
Hourly Data Report for July 6, 2021
TIME
LST
Temp Definition
°C
Dew Point Definition
°C
Rel Hum Definition
%
Precip. Amount Definition
mm

Wind Dir Definition
10's deg

Wind Spd Definition
km/h
Visibility Definition
km
Stn Press Definition
kPa
Hmdx Definition


Wind Chill Definition


Weather Definition


00:00 13.1 7.6 70 0.0 2 7   99.17     LegendNANA
01:00 12.8 7.6 71 0.0 1 9   99.20     LegendNANA
02:00 12.1 7.5 73 0.0 1 9   99.19     LegendNANA
03:00 11.5 6.9 73 0.0 4 10   99.21     LegendNANA
04:00 10.9 6.7 76 0.0 4 15   99.25     LegendNANA
05:00 10.4 6.4 76 0.0 4 10   99.33     LegendNANA
06:00 10.5 6.7 78 0.0 3 9   99.38     LegendNANA
07:00 10.7 6.5 75 0.0 2 9   99.39     LegendNANA
08:00 11.9 6.7 71 0.0 3 12   99.45     LegendNANA
09:00 12.2 6.5 68 0.0 4 12   99.50     LegendNANA
10:00 12.8 6.5 65 0.0 4 8   99.46     LegendNANA
11:00 15.6 6.0 53 0.0 5 10   99.42     LegendNANA
12:00 17.0 4.2 42 0.0 5 12   99.39     LegendNANA
13:00 18.0 4.6 41 0.0 2 10   99.34     LegendNANA
14:00 17.7 5.0 43 0.0 6 12   99.31     LegendNANA
15:00 18.8 4.5 39 0.0 33 9   99.29     LegendNANA
16:00 19.1 3.5 36 0.0 2 11   99.24     LegendNANA
17:00 19.7 3.7 35 0.0 3 6   99.20     LegendNANA
18:00 18.9 2.3 33 0.0 5 8   99.16     LegendNANA
19:00 18.8 2.0 33 0.0 3 8   99.15     LegendNANA
20:00 15.5 2.9 43 0.0 2 4   99.16     LegendNANA
21:00 13.5 4.0 53 0.0 3 5   99.19     LegendNANA
22:00 11.4 4.2 61 0.0 1 6   99.19     LegendNANA
23:00 10.8 4.9 67 0.0 36 6   99.19     LegendNANA

Notes on Data Quality.

Legend

  • E = Estimated
  • M = Missing
  • NA = Not Available*
  • [empty] = Indicates an unobserved value
Date modified: